Location: Prairie Dale
(45.6972°N, 104.5033°W)
Time: 14:38:44
(UTC+00:00)

STARS - Pass Details

Date: 28 June 2022
Orbit: 620 x 637 km, 98.2° (Epoch: 18 August)

Event Time Altitude Azimuth Distance (km) Brightness Sun altitude
Rises 05:21:07 0° 18° (NNE) 2,938 ? -17.4°
Reaches altitude 10° 05:23:24 10° 24° (NNE) 2,023 ? -17.5°
Maximum altitude 05:27:41 50° 100° (E) 805 ? -17.8°
Enters shadow 05:28:58 37° 149° (SSE) 979 ? -17.9°
